Location: Unspecified
(48.5670°N, 0.0000°E)
Time: 12:53:12
(UTC+00:00)

Tiros 1 - All Passes

Search period start: 18 July 2019 00:00
Search period end: 28 July 2019 00:00
Orbit: 630 x 664 km, 48.4° (Epoch: 17 July)

Date Brightness Start Highest point End Pass type
(mag) Time Alt. Az. Time Alt. Az. Time Alt. Az.
18 Jul - 13:01:39 10° SSW 13:05:43 28° SE 13:09:49 10° E daylight
18 Jul - 14:42:43 10° WSW 14:47:31 71° SSE 14:52:19 10° E daylight
18 Jul - 16:24:54 10° W 16:29:44 88° S 16:34:33 10° E daylight
18 Jul - 18:07:10 10° W 18:11:51 52° SSW 18:16:28 10° SE daylight
18 Jul - 19:50:18 10° W 19:53:19 17° SW 19:56:18 10° S daylight
19 Jul - 11:47:38 10° SSE 11:50:09 14° SE 11:52:40 10° ESE daylight
19 Jul - 13:26:56 10° SW 13:31:32 46° SSE 13:36:09 10° E daylight
19 Jul - 15:08:45 10° W 15:13:36 86° S 15:18:26 10° E daylight
19 Jul - 16:51:01 10° W 16:55:50 76° SSW 17:00:37 10° ESE daylight
19 Jul - 18:33:26 10° W 18:37:41 32° SSW 18:41:54 10° SSE daylight
20 Jul - 12:11:47 10° SSW 12:15:46 26° SE 12:19:46 10° E daylight
20 Jul - 13:52:43 10° WSW 13:57:31 69° SSE 14:02:18 10° E daylight
20 Jul - 15:34:53 10° W 15:39:44 89° S 15:44:33 10° E daylight
20 Jul - 17:17:09 10° W 17:21:51 54° SSW 17:26:30 10° SE daylight
20 Jul - 19:00:10 10° W 19:03:22 18° SW 19:06:33 10° S daylight
21 Jul - 10:57:59 10° SSE 11:00:12 13° SE 11:02:26 10° ESE daylight
21 Jul - 12:36:59 10° SW 12:41:33 44° SSE 12:46:08 10° E daylight
21 Jul - 14:18:45 10° W 14:23:35 85° S 14:28:26 10° E daylight
21 Jul - 16:01:00 10° W 16:05:50 78° SSW 16:10:38 10° ESE daylight
21 Jul - 17:43:24 10° W 17:47:43 34° SSW 17:52:00 10° SSE daylight
22 Jul - 11:21:54 10° SSW 11:25:48 25° SE 11:29:42 10° E daylight
22 Jul - 13:02:44 10° WSW 13:07:30 66° SSE 13:12:18 10° E daylight
22 Jul - 14:44:52 10° W 14:49:43 89° S 14:54:33 10° E daylight
22 Jul - 16:27:08 10° W 16:31:52 57° SSW 16:36:33 10° SE daylight
22 Jul - 18:10:02 10° W 18:13:25 19° SW 18:16:46 10° S daylight
23 Jul - 10:08:24 10° SSE 10:10:16 12° SE 10:12:08 10° ESE daylight
23 Jul - 11:47:03 10° SW 11:51:34 42° SSE 11:56:06 10° E daylight
23 Jul - 13:28:44 10° WSW 13:33:34 84° S 13:38:25 10° E daylight
23 Jul - 15:10:59 10° W 15:15:50 80° S 15:20:38 10° ESE daylight
23 Jul - 16:53:21 10° W 16:57:44 36° SSW 17:02:06 10° SE daylight
24 Jul - 10:32:03 10° SSW 10:35:50 23° SE 10:39:38 10° E daylight
24 Jul - 12:12:45 10° WSW 12:17:30 64° SSE 12:22:17 10° E daylight
24 Jul - 13:54:51 10° W 13:59:42 90° SSE 14:04:32 10° E daylight
24 Jul - 15:37:07 10° W 15:41:52 59° SSW 15:46:35 10° ESE daylight
24 Jul - 17:19:55 10° W 17:23:27 21° SW 17:26:58 10° S daylight
25 Jul - 09:18:57 10° SSE 09:20:19 11° SE 09:21:42 10° ESE daylight
25 Jul - 10:57:07 10° SW 11:01:35 40° SSE 11:06:05 10° E daylight
25 Jul - 12:38:44 10° WSW 12:43:33 83° S 12:48:24 10° E daylight
25 Jul - 14:20:59 10° W 14:25:49 81° S 14:30:38 10° ESE daylight
25 Jul - 16:03:19 10° W 16:07:45 38° SSW 16:12:11 10° SE daylight
25 Jul - 17:48:34 10° SW 17:48:59 10° SW 17:49:24 10° SW daylight
26 Jul - 09:42:13 10° SSW 09:45:52 22° SE 09:49:32 10° E daylight
26 Jul - 11:22:46 10° WSW 11:27:30 62° SSE 11:32:16 10° E daylight
26 Jul - 13:04:51 10° W 13:09:41 90° SSE 13:14:32 10° E daylight
26 Jul - 14:47:06 10° W 14:51:52 62° SSW 14:56:36 10° ESE daylight
26 Jul - 16:29:49 10° W 16:33:30 22° SW 16:37:09 10° SSE daylight
27 Jul - 08:29:54 10° SE 08:30:23 10° SE 08:30:51 10° SE daylight
27 Jul - 10:07:11 10° SW 10:11:36 38° SSE 10:16:03 10° E daylight
27 Jul - 11:48:44 10° WSW 11:53:33 81° S 11:58:23 10° E daylight
27 Jul - 13:30:58 10° W 13:35:48 83° SSW 13:40:38 10° ESE daylight
27 Jul - 15:13:17 10° W 15:17:47 40° SSW 15:22:15 10° SE daylight
27 Jul - 16:57:41 10° WSW 16:59:02 11° SW 17:00:24 10° SSW daylight
